User: anonymous   Login
Location: Astronight Observatory
(42.6003°N, 71.2981°W)
Time: 21:51:35
(UTC-05:00)
Language:

DELTA 2 R/B (1) - Orbit

View from above orbital plane
View from above orbital plane
View from above satellite
View from above satellite

Ground track
Ground track

The orbit data is extracted from the following two-line orbital elements,

1 27665U 03005C   14354.54535662  .00000295  00000-0  15075-3 0  1895
2 27665 039.5768 061.5392 0008189 119.5097 014.8067 14.28272233620839
Epoch (UTC): 20 December 2014 13:05:18
Eccentricity: 0.0008189
inclination: 39.5768°
perigee height: 791 km
apogee height: 803 km
right ascension of ascending node: 61.5392°
argument of perigee: 119.5097°
revolutions per day: 14.28272233
mean anomaly at epoch: 14.8067°
orbit number at epoch: 62083

The dashed part of the orbit path shows where the satellite is in the earth's shadow,  

DLR